Franklin, NC

9:19 AM EDT on May 25, 2017 (GMT -0400)
Franklin

Weather History for K1A5 - February, 2014

Change the Weather History Date:

Thursday, February 27, 2014

  Actual Average (KTOC) Record (KTOC)
Temperature  
Mean Temperature 29 °F -  
Max Temperature 46 °F 59 °F 62 °F (2017)
Min Temperature 13 °F 34 °F 28 °F (2015)
Degree Days  
Heating Degree Days 36    
Moisture  
Dew Point 1 °F    
Average Humidity 43    
Maximum Humidity 88    
Minimum Humidity 7    
Precipitation  
Precipitation 0.00 in - - ()
Sea Level Pressure  
Sea Level Pressure 29.90 in    
Wind  
Wind Speed 3 mph (NW)    
Max Wind Speed 14 mph    
Max Gust Speed 22 mph    
Visibility 10 miles    
Events      
Averages and records for this station are not official NWS values.
T = Trace of Precipitation, MM = Missing Value Source: NWS Daily Summary

Daily Weather History Graph

Daily Weather History Graph

Search for Another Location

Airport or City:

Trip Planner

Search our weather history database for the weather conditions in past years. The results will help you decide how hot, cold, wet, or windy it might be!

Date:

Astronomy

Feb. 27, 2014 Rise Set
Actual Time 7:05 AM EST 6:27 PM EST
Civil Twilight 6:40 AM EST 6:52 PM EST
Nautical Twilight 6:10 AM EST 7:22 PM EST
Astronomical Twilight 5:41 AM EST 7:51 PM EST
Moon 5:34 AM EST (2/27) 4:53 PM EST (2/27)
Length of Visible Light 12h 12m
Length of Day
11h 21m
Waning Crescent, 4% of the Moon is Illuminated
Feb 27
Waning Crescent
Mar 1
New
Mar 8
First Quarter
Mar 16
Full
Mar 23
Last Quarter

Hourly Weather History & Observations

Time (EST) Temp. Windchill Dew Point Humidity Pressure Visibility Wind Dir Wind Speed Gust Speed Precip Events Conditions
12:15 AM 23.7 °F - 12.4 °F 62% 29.87 in 10.0 mi Calm Calm - N/A   Clear
12:35 AM 23.4 °F 16.2 °F 12.7 °F 64% 29.87 in 10.0 mi West 5.8 mph - N/A   Clear
12:55 AM 22.8 °F - 12.4 °F 64% 29.87 in 10.0 mi Calm Calm - N/A   Clear
1:15 AM 24.3 °F - 11.1 °F 57% 29.88 in 10.0 mi Calm Calm - N/A   Clear
1:35 AM 21.7 °F 17.0 °F 12.7 °F 68% 29.87 in 10.0 mi SW 3.5 mph - N/A   Clear
1:55 AM 21.6 °F - 14.0 °F 73% 29.87 in 10.0 mi Calm Calm - N/A   Clear
2:15 AM 19.2 °F - 13.8 °F 80% 29.88 in 10.0 mi Calm Calm - N/A   Clear
2:35 AM 19.8 °F - 13.1 °F 75% 29.88 in 10.0 mi Calm Calm - N/A   Clear
2:55 AM 18.9 °F - 14.0 °F 81% 29.87 in 10.0 mi Calm Calm - N/A   Clear
3:15 AM 18.1 °F - 12.7 °F 79% 29.87 in 10.0 mi Calm Calm - N/A   Clear
3:35 AM 18.0 °F - 13.1 °F 81% 29.87 in 10.0 mi Calm Calm - N/A   Clear
3:55 AM 17.4 °F - 12.4 °F 81% 29.86 in 10.0 mi Calm Calm - N/A   Clear
4:15 AM 15.8 °F - 11.3 °F 82% 29.86 in 10.0 mi Calm Calm - N/A   Clear
4:35 AM 16.0 °F - 12.4 °F 86% 29.86 in 10.0 mi Calm Calm - N/A   Clear
4:55 AM 15.4 °F - 12.0 °F 86% 29.86 in 10.0 mi Calm Calm - N/A   Clear
5:15 AM 15.6 °F - 12.2 °F 86% 29.87 in 10.0 mi Calm Calm - N/A   Clear
5:35 AM 15.3 °F - 12.0 °F 87% 29.87 in 10.0 mi Calm Calm - N/A   Clear
5:55 AM 14.4 °F - 11.1 °F 87% 29.87 in 10.0 mi Calm Calm - N/A   Clear
6:15 AM 14.0 °F - 10.9 °F 88% 29.87 in 10.0 mi Calm Calm - N/A   Clear
6:35 AM 13.6 °F - 10.4 °F 87% 29.88 in 10.0 mi Calm Calm - N/A   Clear
6:55 AM 14.0 °F - 11.1 °F 88% 29.89 in 10.0 mi Calm Calm - N/A   Clear
7:15 AM 13.6 °F - 10.6 °F 88% 29.89 in 10.0 mi Calm Calm - N/A   Clear
7:35 AM 14.5 °F - 11.1 °F 86% 29.90 in 10.0 mi Calm Calm - N/A   Clear
7:55 AM 16.0 °F - 12.4 °F 86% 29.91 in 10.0 mi Calm Calm - N/A   Clear
8:15 AM 23.2 °F 15.0 °F 3.7 °F 43% 29.91 in 10.0 mi North 6.9 mph - N/A   Clear
8:35 AM 26.2 °F 22.1 °F -9.4 °F 21% 29.92 in 10.0 mi North 3.5 mph - N/A   Clear
8:55 AM 27.5 °F 21.1 °F -12.3 °F 17% 29.92 in 10.0 mi NNW 5.8 mph - N/A   Clear
9:15 AM 29.3 °F 20.2 °F -11.9 °F 16% 29.92 in 10.0 mi North 10.4 mph - N/A   Clear
9:35 AM 30.2 °F 23.4 °F -13.2 °F 15% 29.92 in 10.0 mi NNW 6.9 mph - N/A   Clear
9:55 AM 31.1 °F 24.5 °F -15.3 °F 13% 29.92 in 10.0 mi NW 6.9 mph - N/A   Clear
10:15 AM 32.2 °F 24.4 °F -17.3 °F 11% 29.92 in 10.0 mi NNW 9.2 mph 17.3 mph N/A   Clear
10:35 AM 33.6 °F 29.4 °F -18.2 °F 10% 29.92 in 10.0 mi North 4.6 mph - N/A   Clear
10:55 AM 36.0 °F 31.1 °F -18.6 °F 9% 29.91 in 10.0 mi NNW 5.8 mph - N/A   Clear
11:15 AM 38.3 °F 32.5 °F -17.5 °F 9% 29.90 in 10.0 mi NNW 8.1 mph - N/A   Clear
11:35 AM 39.2 °F 32.5 °F -20.6 °F 7% 29.91 in 10.0 mi North 10.4 mph 19.6 mph N/A   Clear
11:55 AM 40.3 °F 33.9 °F -18.4 °F 8% 29.90 in 10.0 mi NNE 10.4 mph 21.9 mph N/A   Clear
12:15 PM 41.7 °F 36.7 °F -17.1 °F 8% 29.89 in 10.0 mi NW 8.1 mph 17.3 mph N/A   Clear
12:35 PM 42.3 °F 37.9 °F -19.7 °F 7% 29.89 in 10.0 mi North 6.9 mph 20.7 mph N/A   Clear
12:55 PM 44.1 °F 39.5 °F -15.2 °F 8% 29.88 in 10.0 mi North 8.1 mph 20.7 mph N/A   Clear
1:15 PM 44.8 °F 40.4 °F -7.1 °F 11% 29.87 in 10.0 mi NNW 8.1 mph 18.4 mph N/A   Clear
1:35 PM 45.3 °F 39.0 °F -4.5 °F 12% 29.87 in 10.0 mi WNW 13.8 mph 19.6 mph N/A   Clear
1:55 PM 45.1 °F 39.9 °F -3.1 °F 13% 29.86 in 10.0 mi NNW 10.4 mph 20.7 mph N/A   Clear
2:15 PM 45.7 °F 40.6 °F -1.3 °F 14% 29.86 in 10.0 mi NW 10.4 mph 20.7 mph N/A   Clear
2:30 PM 45.1 °F 39.5 °F -1.5 °F 14% 29.86 in 10.0 mi NNW 11.5 mph 20.7 mph N/A   Clear
2:55 PM 45.7 °F 42.0 °F -3.1 °F 13% 29.86 in 10.0 mi WNW 6.9 mph 21.9 mph N/A   Clear
3:15 PM 44.8 °F 38.7 °F -4.7 °F 13% 29.86 in 10.0 mi NNW 12.7 mph 20.7 mph N/A   Clear
3:35 PM 44.6 °F 39.2 °F -4.7 °F 13% 29.86 in 10.0 mi NW 10.4 mph 18.4 mph N/A   Clear
3:55 PM 44.4 °F 39.5 °F -5.8 °F 12% 29.87 in 10.0 mi NW 9.2 mph 19.6 mph N/A   Clear
4:15 PM 44.2 °F 39.7 °F -5.6 °F 12% 29.87 in 10.0 mi NW 8.1 mph 17.3 mph N/A   Clear
4:35 PM 43.3 °F 37.2 °F -8.1 °F 11% 29.87 in 10.0 mi NW 11.5 mph 19.6 mph N/A   Clear
4:55 PM 42.8 °F 37.0 °F -8.0 °F 12% 29.87 in 10.0 mi NNW 10.4 mph 16.1 mph N/A   Clear
5:15 PM 42.1 °F 37.1 °F -8.1 °F 12% 29.88 in 10.0 mi WNW 8.1 mph - N/A   Clear
5:35 PM 41.0 °F 36.4 °F -8.0 °F 12% 29.89 in 10.0 mi NW 6.9 mph 17.3 mph N/A   Clear
5:55 PM 39.7 °F 35.6 °F -4.9 °F 15% 29.91 in 10.0 mi NNW 5.8 mph - N/A   Clear
6:15 PM 38.1 °F - -5.3 °F 16% 29.91 in 10.0 mi Calm Calm - N/A   Clear
6:35 PM 37.2 °F 33.6 °F -4.4 °F 17% 29.92 in 10.0 mi NNW 4.6 mph - N/A   Clear
6:55 PM 36.5 °F 29.7 °F -2.6 °F 19% 29.92 in 10.0 mi NNW 9.2 mph - N/A   Clear
7:10 PM 36.0 °F 28.5 °F -1.3 °F 21% 29.93 in 10.0 mi NW 10.4 mph - N/A   Clear
7:35 PM 35.2 °F 29.5 °F 0.7 °F 23% 29.94 in 10.0 mi NW 6.9 mph - N/A   Clear
7:55 PM 34.9 °F 29.9 °F 1.4 °F 24% 29.94 in 10.0 mi WNW 5.8 mph - N/A   Clear
8:15 PM 34.0 °F 28.8 °F 2.1 °F 26% 29.95 in 10.0 mi WNW 5.8 mph - N/A   Clear
8:35 PM 33.1 °F 30.0 °F 3.0 °F 28% 29.95 in 10.0 mi NW 3.5 mph - N/A   Clear
8:55 PM 32.9 °F - 2.8 °F 28% 29.96 in 10.0 mi Calm Calm - N/A   Clear
9:15 PM 27.0 °F - 10.4 °F 50% 29.96 in 10.0 mi Calm Calm - N/A   Clear
9:35 PM 25.7 °F - 12.2 °F 57% 29.97 in 10.0 mi Calm Calm - N/A   Clear
9:55 PM 24.3 °F - 11.8 °F 59% 29.97 in 10.0 mi Calm Calm - N/A   Clear
10:15 PM 23.4 °F - 12.2 °F 62% 29.97 in 10.0 mi Calm Calm - N/A   Clear
10:35 PM 22.8 °F - 11.3 °F 61% 29.97 in 10.0 mi Calm Calm - N/A   Clear
10:55 PM 20.8 °F - 12.7 °F 71% 29.97 in 10.0 mi Calm Calm - N/A   Clear
11:15 PM 21.4 °F - 12.6 °F 69% 29.97 in 10.0 mi Calm Calm - N/A   Clear
11:35 PM 21.0 °F - 13.1 °F 71% 29.98 in 10.0 mi Calm Calm - N/A   Clear
11:55 PM 21.6 °F - 13.3 °F 70% 29.99 in 10.0 mi Calm Calm - N/A   Clear